Location: Marcé
(47.5801°N, 0.3280°W)
Time: 00:28:48
(UTC+01:00)

Explorer 7 - All Passes

Search period start: 30 November 2021 00:00
Search period end: 10 December 2021 00:00
Orbit: 483 x 675 km, 50.3° (Epoch: 29 November)

Date Brightness Start Highest point End Pass type
(mag) Time Alt. Az. Time Alt. Az. Time Alt. Az.
30 Nov - 07:38:31 10° SSW 07:42:04 26° SE 07:45:28 10° E visible
30 Nov - 09:18:06 10° WSW 09:22:14 90° NW 09:26:08 10° ENE daylight
30 Nov - 10:58:58 10° W 11:02:52 56° N 11:06:37 10° E daylight
30 Nov - 12:39:37 10° WNW 12:43:29 88° SSW 12:47:15 10° ESE daylight
30 Nov - 14:20:31 10° W 14:23:32 23° SW 14:26:30 10° SSE daylight
01 Dec - 07:42:02 10° SW 07:45:58 38° SSE 07:49:43 10° ENE visible
01 Dec - 09:22:11 10° W 09:26:18 73° NNW 09:30:11 10° ENE daylight
01 Dec - 11:03:05 10° WNW 11:07:00 58° N 11:10:45 10° E daylight
01 Dec - 12:43:41 10° WNW 12:47:30 66° SSW 12:51:14 10° ESE daylight
01 Dec - 14:25:09 10° W 14:27:21 15° SW 14:29:32 10° S daylight
02 Dec - 06:07:58 10° SSE 06:10:04 13° SE 06:12:06 10° ESE visible
02 Dec - 07:45:47 10° SW 07:49:55 54° SSE 07:53:51 10° ENE visible
02 Dec - 09:26:19 10° W 09:30:24 63° N 09:34:16 10° ENE daylight
02 Dec - 11:07:10 10° WNW 11:11:07 65° N 11:14:53 10° E daylight
02 Dec - 12:47:47 10° WNW 12:51:28 46° SSW 12:55:04 10° SE daylight
03 Dec - 06:10:40 10° S 06:13:52 20° SE 06:16:57 10° E visible
03 Dec - 07:49:40 10° WSW 07:53:55 74° SSE 07:57:55 10° ENE visible
03 Dec - 09:30:28 10° W 09:34:30 58° N 09:38:21 10° ENE daylight
03 Dec - 11:11:14 10° WNW 11:15:12 77° NNE 11:19:00 10° ESE daylight
03 Dec - 12:51:57 10° W 12:55:24 31° SW 12:58:44 10° SSE daylight
04 Dec - 06:13:55 10° SSW 06:17:43 29° SE 06:21:20 10° E visible
04 Dec - 07:53:41 10° WSW 07:57:57 86° NNW 08:01:58 10° ENE visible
04 Dec - 09:34:35 10° WNW 09:38:37 57° N 09:42:27 10° E daylight
04 Dec - 11:15:17 10° WNW 11:19:15 84° SSW 11:23:02 10° ESE daylight
04 Dec - 12:56:18 10° W 12:59:15 21° SW 13:02:07 10° S daylight
05 Dec - 06:17:29 10° SW 06:21:38 42° SSE 06:25:32 10° ENE visible
05 Dec - 07:57:46 10° W 08:02:01 71° NNW 08:06:00 10° ENE visible
05 Dec - 09:38:42 10° WNW 09:42:44 59° N 09:46:35 10° E daylight
05 Dec - 11:19:20 10° WNW 11:23:14 62° SSW 11:26:59 10° SE daylight
05 Dec - 13:01:00 10° WSW 13:03:01 14° SW 13:05:01 10° SSW daylight
06 Dec - 04:43:03 10° S 04:45:40 15° SE 04:48:11 10° E visible
06 Dec - 06:21:15 10° SW 06:25:35 59° SSE 06:29:39 10° ENE visible
06 Dec - 08:01:53 10° W 08:06:06 62° N 08:10:04 10° ENE daylight
06 Dec - 09:42:46 10° WNW 09:46:51 67° NNE 09:50:41 10° E daylight
06 Dec - 11:23:26 10° WNW 11:27:11 43° SSW 11:30:47 10° SE daylight
07 Dec - 04:45:56 10° SSW 04:49:27 23° SE 04:52:50 10° E visible
07 Dec - 06:25:10 10° WSW 06:29:34 79° SSE 06:33:42 10° ENE visible
07 Dec - 08:06:00 10° W 08:10:12 58° N 08:14:09 10° ENE daylight
07 Dec - 09:46:49 10° WNW 09:50:54 81° NNE 09:54:46 10° ESE daylight
07 Dec - 11:27:37 10° W 11:31:04 29° SW 11:34:24 10° SSE daylight
08 Dec - 04:49:17 10° SSW 04:53:19 32° SE 04:57:09 10° E visible
08 Dec - 06:29:11 10° WSW 06:33:36 83° NNW 06:37:44 10° ENE visible
08 Dec - 08:10:08 10° WNW 08:14:19 58° N 08:18:14 10° E daylight
08 Dec - 09:50:51 10° WNW 09:54:56 80° SSW 09:58:47 10° ESE daylight
08 Dec - 11:31:59 10° W 11:34:53 20° SW 11:37:43 10° S daylight
09 Dec - 03:16:02 10° SSE 03:17:26 11° SE 03:18:49 10° ESE night (unlit)
09 Dec - 04:52:52 10° SW 04:57:13 46° SSE 05:01:18 10° ENE visible
09 Dec - 06:33:15 10° W 06:37:39 70° NNW 06:41:46 10° ENE visible
09 Dec - 08:14:13 10° WNW 08:18:25 61° N 08:22:21 10° E daylight
09 Dec - 09:54:54 10° WNW 09:58:54 59° SSW 10:02:42 10° SE daylight
09 Dec - 11:36:47 10° WSW 11:38:38 13° SW 11:40:28 10° SSW daylight
